Regional Weather Roundup
Issued by NWS

Home | Current Version | Previous Version | Text Only | Print | Product List | Glossary On
Versions: 1 2 3 4 5 6 7 8 9 10 11 12 13 14 15 16 17 18 19 20 21 22 23 24 25 26 27 28 29 30 31 32 33 34 35 36 37 38 39 40 41 42 43 44 45 46 47 48 49 50
000
ASUS43 KMKX 280621
RWRWI

WISCONSIN REGIONAL WEATHER ROUNDUP
NATIONAL WEATHER SERVICE MILWAUKEE/SULLIVAN WI
100 AM CDT WED JUN 28 2017

NOTE: "FAIR" INDICATES FEW OR NO CLOUDS BELOW 12,000 FEET WITH NO
SIGNIFICANT WEATHER AND/OR OBSTRUCTIONS TO VISIBILITY.

WIZ001-002-006>008-014>016-023>028-280700-
NORTHWEST WISCONSIN

CITY           SKY/WX    TMP DP  RH WIND       PRES   REMARKS
SUPERIOR ARPT  NOT AVBL
ASHLAND        CLEAR     59  47  64 S9        29.85F
6HR MIN TEMP:  58; 6HR MAX TEMP:  70;

HAYWARD        PTCLDY    61  46  57 S8        29.86F
6HR MIN TEMP:  57; 6HR MAX TEMP:  72;

SIREN          CLOUDY    61  46  58 SE6       29.81F
6HR MIN TEMP:  60; 6HR MAX TEMP:  73;

CUMBERLAND     MOCLDY    57  45  62 SE7       29.84F
RICE LAKE      MOCLDY    60  47  63 SE9       29.87F
6HR MIN TEMP:  60; 6HR MAX TEMP:  73;

CHETEK         MOCLDY    59  49  69 SE7       29.86F
6HR MIN TEMP:  58; 6HR MAX TEMP:  72;

LADYSMITH      CLOUDY    58  48  69 SE5       29.91F
6HR MIN TEMP:  58; 6HR MAX TEMP:  72;

EAU CLAIRE     MOCLDY    62  48  60 SE12      29.86F
6HR MIN TEMP:  62; 6HR MAX TEMP:  73;

MENOMONIE      CLOUDY    59  50  71 E8        29.85F
6HR MIN TEMP:  58; 6HR MAX TEMP:  73;

NEW RICHMOND   MOCLDY    63  46  52 SE9       29.79F
6HR MIN TEMP:  61; 6HR MAX TEMP:  73;

OSCEOLA        CLOUDY    64  48  56 E10       29.81F
6HR MIN TEMP:  64; 6HR MAX TEMP:  74;

$$

WIZ003>005-009-010-017-018-280700-
NORTH CENTRAL WISCONSIN

CITY           SKY/WX    TMP DP  RH WIND       PRES   REMARKS
MANITOWISH WTR PTCLDY    55  49  81 S7        29.91S
6HR MIN TEMP:  52; 6HR MAX TEMP:  69;

ARBOR VITAE    CLEAR     57  49  76 S5        29.91F
6HR MIN TEMP:  57; 6HR MAX TEMP:  72;

WOODRUFF       CLEAR     57  49  76 S5        29.91F
6HR MIN TEMP:  57; 6HR MAX TEMP:  72;

RHINELANDER    CLEAR     57  49  74 SW8       29.94F
6HR MIN TEMP:  52; 6HR MAX TEMP:  69;

EAGLE RIVER    CLEAR     56  46  68 SW3       29.92F
6HR MIN TEMP:  56; 6HR MAX TEMP:  69;

LAND O LAKES   CLEAR     56  48  74 S3        29.93S
6HR MIN TEMP:  56; 6HR MAX TEMP:  70;

PHILLIPS       CLOUDY    56  48  74 S8        29.91S
6HR MIN TEMP:  56; 6HR MAX TEMP:  68;

TOMAHAWK       NOT AVBL
MEDFORD        CLOUDY    54  48  80 S7        29.92F
6HR MIN TEMP:  54; 6HR MAX TEMP:  69;

MERRILL        CLEAR     59  48  67 CALM      29.94F
6HR MIN TEMP:  55; 6HR MAX TEMP:  69;

$$

WIZ029-030-035-036-043>047-280700-
CENTRAL WISCONSIN

CITY           SKY/WX    TMP DP  RH WIND       PRES   REMARKS
WAUSAU           N/A    N/A N/A N/A MISG      29.92F
MOSINEE        CLEAR     54  50  87 S6        29.95F
MARSHFIELD     CLOUDY    55  47  74 SW7       29.93F
6HR MIN TEMP:  54; 6HR MAX TEMP:  70;

STEVENS POINT  CLEAR     54  47  76 S5        29.96F
6HR MIN TEMP:  51; 6HR MAX TEMP:  69;

WAUPACA        CLEAR     56  52  86 CALM      29.97F
6HR MIN TEMP:  55; 6HR MAX TEMP:  74;

WAUTOMA        PTCLDY    51  50  96 CALM      29.97F
6HR MIN TEMP:  51; 6HR MAX TEMP:  72;

WISC RAPIDS    PTCLDY    59  48  67 S7        29.95F
6HR MIN TEMP:  54; 6HR MAX TEMP:  72;

CAMP DOUGLAS   CLOUDY    50  48  93 SE3       29.93F
6HR MIN TEMP:  48; 6HR MAX TEMP:  72;

$$

WIZ011>013-019>022-031-037>040-048>050-280700-
NORTHEAST WISCONSIN

CITY           SKY/WX    TMP DP  RH WIND       PRES   REMARKS
ANTIGO         CLEAR     55  48  79 SW7       29.95F
6HR MIN TEMP:  54; 6HR MAX TEMP:  67;

SHAWANO        CLEAR     59  52  77 CALM      29.95F
OCONTO         MOCLDY    59  49  69 CALM      29.95F
6HR MIN TEMP:  59; 6HR MAX TEMP:  73;

STURGEON BAY     N/A     61  50  67 S8        29.98S
6HR MIN TEMP:  60; 6HR MAX TEMP:  70;

GREEN BAY      CLEAR     60  53  77 S8        29.97F
6HR MIN TEMP:  59; 6HR MAX TEMP:  73;

MANITOWOC      CLEAR     61  49  64 SW7       30.00S
6HR MIN TEMP:  58; 6HR MAX TEMP:  73;

APPLETON       CLEAR     57  46  67 SW8       29.96F
CLINTONVILLE   CLEAR     55  48  76 S5        29.96F
OSHKOSH        CLEAR     57  49  74 S8        29.98F
6HR MIN TEMP:  57; 6HR MAX TEMP:  72;

$$

WIZ032>034-041-042-053>061-280700-
SOUTHWEST WISCONSIN

CITY           SKY/WX    TMP DP  RH WIND       PRES   REMARKS
LA CROSSE      PTCLDY    69  48  47 S8        29.88F
6HR MIN TEMP:  65; 6HR MAX TEMP:  78;

SPARTA         CLOUDY    64  47  55 S9        29.91F
6HR MIN TEMP:  51; 6HR MAX TEMP:  72;

VIROQUA        PTCLDY    62  48  60 S15       29.93F
6HR MIN TEMP:  60; 6HR MAX TEMP:  71;

BOSCOBEL       CLOUDY    64  49  57 S6        29.94F
6HR MIN TEMP:  54; 6HR MAX TEMP:  75;

PRAIRIE DU CHI CLOUDY    64  46  51 SE6       29.91F
6HR MIN TEMP:  60; 6HR MAX TEMP:  73;

PLATTEVILLE    MOCLDY    59  49  70 SE8       29.97F
6HR MIN TEMP:  58; 6HR MAX TEMP:  73;

$$

WIZ056-057-062-063-064-067-068-280700-
SOUTH CENTRAL WISCONSIN

CITY           SKY/WX    TMP DP  RH WIND       PRES   REMARKS
REEDSBURG      CLEAR     58  48  68 SE5       29.95F
6HR MIN TEMP:  58; 6HR MAX TEMP:  71;

BARABOO/DELLS  CLEAR     54  47  77 S6        29.96F
6HR MIN TEMP:  54; 6HR MAX TEMP:  71;

LONE ROCK      CLEAR     55  51  86 E5        29.96F
6HR MIN TEMP:  54; 6HR MAX TEMP:  73;

MINERAL POINT  PTCLDY    59  50  72 SE8       29.97F
MADISON        CLEAR     62  49  62 S6        29.99F
6HR MIN TEMP:  62; 6HR MAX TEMP:  73;

MIDDLETON      CLEAR     55  49  78 CALM      30.00F
6HR MIN TEMP:  55; 6HR MAX TEMP:  73;

WATERTOWN      NOT AVBL
MONROE         CLEAR     59  45  58 S8        30.00F
JANESVILLE     CLEAR     55  46  71 S5        30.01F
$$

WIZ051-052-058>065-066-070>072-280700-
SOUTHEAST WISCONSIN

CITY           SKY/WX    TMP DP  RH WIND       PRES   REMARKS
MILWAUKEE      PTCLDY    61  50  67 S6        30.03R
6HR MIN TEMP:  61; 6HR MAX TEMP:  74;

WAUKESHA       CLEAR     55  46  71 S5        30.03F
MILWAUKEE/TIMM CLEAR     59  45  58 S5        30.03S
RACINE         CLEAR     58  50  75 SW6       30.05R
6HR MIN TEMP:  58; 6HR MAX TEMP:  68;

KENOSHA        CLEAR     59  49  69 S5        30.04R
6HR MIN TEMP:  54; 6HR MAX TEMP:  71;

FOND DU LAC    CLEAR     56  49  77 S6        30.00S
6HR MIN TEMP:  56; 6HR MAX TEMP:  73;

SHEBOYGAN      CLEAR     53  52  96 CALM      30.01R FOG
6HR MIN TEMP:  52; 6HR MAX TEMP:  72; 6HR PCP: TRACE;

WEST BEND      CLEAR     54  50  87 CALM      30.02S
JUNEAU         CLEAR     58  48  69 S5        30.02S
6HR MIN TEMP:  58; 6HR MAX TEMP:  71;

$$

LSZ147-162-280700-
LAKE SUPERIOR

STATION/POSITION TIME  TEMP    WIND        PRES    WAVE
                       AIR SEA DIR/SP/G            HT/PER
                 (UTC) (F)     (DEG/KT/KT) (MB)    (FT/S)
W MID LAKE BUOY  0550   49 39  210/ 12/ 12 1010.3F   0
DEVILS ISLAND    0600   64     190/ 12/ 18 1009.7F
SAXON HARBOR     0540   62     200/  5/  9 1010.5F
$$

LMZ867-665-643>646-280700-
LAKE MICHIGAN

STATION/POSITION TIME  TEMP    WIND        PRES    WAVE
                       AIR SEA DIR/SP/G            HT/PER
                 (UTC) (F)     (DEG/KT/KT) (MB)    (FT/S)
CHAMBERS ISLAND  0540   65     190/  4/ 10 1013.9S
S GREEN BAY BUOY 0600   67     200/ 14/ 16 1014.2
N MID LAKE BUOY  0550   57 55  190/ 14/ 14 1015.1S   3/ 5
NORTHPORT PIER   0540   61     180/  3/  6 1014.2S
KEWAUNEE LAKESHO 0554   58     220/  6/ 10 1014.9F
SHEBOYGAN LAKESH 0600   61     220/  9/ 10 1015.8R
PORT WASHINGTON  0540   59     230/  2/  4 1017.3R
ATWATER BUOY     0509   61 56



USA.gov is the U.S. government's official web portal to all federal, state and local government web resources and services.